"Pseudo-MPEC" for CC83J32

Created 2024 Nov 2 0:31:14 UT using Find_Orb

Click here for an explanation of pseudo-MPECs

 
 Astrometry: 
     CC83J32*1C2024 10 31.32992903 20 11.072+04 20 59.50   ~AV8l 21.75GVNEOCPG96
     CC83J32 1C2024 10 31.33509903 20 12.793+04 20 37.18   ~AV8l 21.60GVNEOCPG96
     CC83J32 1C2024 10 31.34025103 20 14.467+04 20 15.68   ~AV8l 20.86GVNEOCPG96
     CC83J32 1C2024 10 31.34540703 20 16.145+04 19 53.40   ~AV8l 21.88GVNEOCPG96
     CC83J32 KC2024 10 31.44019403 20 47.591+04 13 06.89   ~AVB2 21.40GVNEOCPV06
     CC83J32 KC2024 10 31.44230703 20 48.296+04 12 57.89   ~AVB2 21.13GVNEOCPV06
     CC83J32 KC2024 10 31.44442103 20 49.009+04 12 48.64   ~AVB2 21.33GVNEOCPV06
     CC83J32 1C2024 10 31.89433 03 23 43.62 +03 39 30.4    ~AVNH 20.7 VXNEOCP033
     CC83J32 1C2024 10 31.89683 03 23 44.53 +03 39 18.6    ~AVNH 20.8 VXNEOCP033
     CC83J32 1C2024 10 31.89934 03 23 45.41 +03 39 08.1    ~AVNH 20.0 VXNEOCP033
     CC83J32 1C2024 10 31.90184 03 23 46.30 +03 38 56.8    ~AVNH 20.6 VXNEOCP033
     CC83J32 1C2024 10 31.96947 03 24 10.50 +03 33 53.1    ~AVNl 21.4 VXNEOCP033
     CC83J32 1C2024 10 31.97134 03 24 11.13 +03 33 45.3    ~AVNl 21.1 VXNEOCP033
     CC83J32 1C2024 10 31.97321 03 24 11.81 +03 33 36.8    ~AVNl 21.0 VXNEOCP033
     CC83J32 KC2024 11 01.24171003 25 56.54 +03 13 27.6    ~B16l 22.1 GVNEOCPH21
     CC83J32 KC2024 11 01.25010403 25 59.55 +03 12 49.0    ~B16l       VNEOCPH21
     CC83J32 KC2024 11 01.25669603 26 01.90 +03 12 18.4    ~B16l 21.6 GVNEOCPH21
     CC83J32 KC2024 11 01.37604603 26 47.051+03 03 14.26   ~B19l 21.26GVNEOCPI52
     CC83J32 KC2024 11 01.37847903 26 47.890+03 03 02.81   ~B19l 20.96GVNEOCPI52
     CC83J32 KC2024 11 01.38091603 26 48.790+03 02 51.43   ~B19l 20.84GVNEOCPI52
     CC83J32 KC2024 11 01.38334003 26 49.682+03 02 39.73   ~B19l 21.31GVNEOCPI52

Station data:
(033) Karl Schwarzschild Observatory, Tautenburg  (N50.980139 E11.711240)
   Germany.  Observer B. Stecklum. 1.34-m f/3 Schmidt + CCD.
(G96) Mt. Lemmon Survey  (N32.442729 W110.788720)  US/Arizona.  Observer E.
   J. Christensen. 1.5-m reflector + 10K CCD.
(H21) Astronomical Research Observatory, Westfield  (N39.483054 W87.968270)
   US/Illinois.  Observer R. Holmes. Measurers S. Foglia, L. Buzzi, T.
   Linder, R. Holmes. 0.76-m f/3.0 astrograph + CCD0.81-m f/4.0 astrograph +
   CCD0.61-m f/4.5 astrograph + CCD0.40-m f/5.32 astrograph + CCD.
(I52) Steward Observatory, Mt. Lemmon Station  (N32.442570 W110.788920)
   US/Arizona.  Observers T. A. Pruyne, B. M. Africano, E. J. Christensen, G.
   A. Farneth, D. C. Fuls, A. R. Gibbs, A. D. Grauer, H. Gröller, J. A.
   Johnson, R. A. Kowalski, S. M. Larson, G. J. Leonard, D. Rankin, R. L.
   Seaman, F. C. Shelly, K. W. Wierzchoś. 1.0-m prime focus + CCD.
(V06) Catalina Sky Survey-Kuiper  (N32.416871 W110.732550)  US/Arizona.
   Observers T. A. Pruyne, B. M. Africano, E. J. Christensen, G. A. Farneth,
   D. C. Fuls, A. R. Gibbs, A. D. Grauer, H. Gröller, J. A. Johnson, R. A.
   Kowalski, S. M. Larson, G. J. Leonard, D. Rankin, R. L. Seaman, F. C.
   Shelly, K. W. Wierzchoś. 1.55-m reflector + CCD.

Orbital elements:  CC83J32
   Perihelion 2024 Dec 18.28016 +/- 0.0864 TT =  6:43:26 (JD 2460662.78016)
Epoch 2024 Nov  1.0 TT = JDT 2460615.5   Earth MOID: 0.0439   Ma: 0.0001
M 335.41227033 +/- 0.13             (J2000 ecliptic)             AutoNEOCP
n   0.52004324 +/- 0.00197          Peri.  249.14661 +/- 0.14
a   1.53147440 +/- 0.00387          Node   204.90092 +/- 0.035
e   0.3809084 +/- 0.00142           Incl.    4.44289 +/- 0.024
P   1.895/692.237d         H 25.71  G  0.15   U  8.6
q 0.94812290 +/- 0.000542    Q 2.11482590 +/- 0.00749
From 21 observations 2024 Oct. 31-Nov. 1 (25.3 hr); mean residual 0".20
Residuals in arcseconds: 
241031 G96  .18-  .11+    241031 033  .09-  .16+    241101 H21  .20+  .11+    
241031 G96  .25+  .23-    241031 033  .09+  .49-    241101 H21  .16+  .25+    
241031 G96  .06+  .20+    241031 033  .22-  .21+    241101 H21  .09-  .10+    
241031 G96  .10-  .13-    241031 033  .32-  .06+    241101 I52  .15+  .03+    
241031 V06  .10+  .02-    241031 033  .43+  .48-    241101 I52  .42-  .03-    
241031 V06  .04-  .11+    241031 033  .12-  .14+    241101 I52  .11-  .01+    
241031 V06  .07-  .01-    241031 033  .09+  .07+    241101 I52  .15+  .33-    

Ephemerides (geocentric):
Date (UTC) HH   RA             Dec           delta  r     elong  mag " sig PA
---- --------  ------------   ------------  ------ ------ -----  --- --------
2024 11 02 01  03 31 20.802   +02 10 42.53  .07922 1.0672 160.2 21.3 .824 114
2024 11 02 02  03 31 38.382   +02 07 15.44  .07906 1.0670 160.2 21.3 .905 115
2024 11 02 03  03 31 56.028   +02 03 47.58  .07890 1.0668 160.1 21.3 0.99 117
2024 11 02 04  03 32 13.738   +02 00 18.92  .07874 1.0666 160.0 21.3 1.08 118
2024 11 02 05  03 32 31.513   +01 56 49.48  .07858 1.0664 159.9 21.3 1.17 118
2024 11 02 06  03 32 49.353   +01 53 19.25  .07843 1.0662 159.9 21.3 1.27 119
2024 11 02 07  03 33 07.260   +01 49 48.22  .07827 1.0660 159.8 21.3 1.37 120
2024 11 02 08  03 33 25.232   +01 46 16.40  .07811 1.0658 159.7 21.3 1.47 120
2024 11 02 09  03 33 43.271   +01 42 43.77  .07796 1.0656 159.7 21.3 1.58 121
2024 11 02 10  03 34 01.377   +01 39 10.35  .07780 1.0655 159.6 21.3 1.70 121
2024 11 02 11  03 34 19.550   +01 35 36.11  .07764 1.0653 159.5 21.3 1.81 122
2024 11 02 12  03 34 37.790   +01 32 01.07  .07749 1.0651 159.4 21.3 1.93 122
2024 11 02 13  03 34 56.097   +01 28 25.22  .07733 1.0649 159.4 21.3 2.06 123
2024 11 02 14  03 35 14.473   +01 24 48.56  .07718 1.0647 159.3 21.3 2.18 123
2024 11 02 15  03 35 32.916   +01 21 11.08  .07702 1.0645 159.2 21.3 2.32 123
2024 11 02 16  03 35 51.429   +01 17 32.78  .07687 1.0643 159.1 21.3 2.45 124
2024 11 02 17  03 36 10.010   +01 13 53.65  .07671 1.0641 159.1 21.2 2.59 124
2024 11 02 18  03 36 28.660   +01 10 13.71  .07656 1.0639 159.0 21.2 2.74 124
2024 11 02 19  03 36 47.380   +01 06 32.93  .07641 1.0637 158.9 21.2 2.89 124
2024 11 02 20  03 37 06.170   +01 02 51.33  .07625 1.0636 158.8 21.2 3.04 124
2024 11 02 21  03 37 25.030   +00 59 08.89  .07610 1.0634 158.7 21.2 3.20 125
2024 11 02 22  03 37 43.960   +00 55 25.62  .07595 1.0632 158.7 21.2 3.36 125
2024 11 02 23  03 38 02.961   +00 51 41.51  .07579 1.0630 158.6 21.2 3.53 125
2024 11 03 00  03 38 22.034   +00 47 56.55  .07564 1.0628 158.5 21.2 3.70 125
2024 11 03 01  03 38 41.177   +00 44 10.76  .07549 1.0626 158.4 21.2 3.87 125
2024 11 03 02  03 39 00.393   +00 40 24.12  .07534 1.0624 158.4 21.2 4.05 125
2024 11 03 03  03 39 19.681   +00 36 36.62  .07519 1.0622 158.3 21.2 4.24 126
2024 11 03 04  03 39 39.041   +00 32 48.28  .07504 1.0620 158.2 21.2 4.43 126
2024 11 03 05  03 39 58.474   +00 28 59.08  .07489 1.0619 158.1 21.2 4.62 126
2024 11 03 06  03 40 17.979   +00 25 09.03  .07474 1.0617 158.0 21.2 4.82 126
2024 11 03 07  03 40 37.559   +00 21 18.11  .07459 1.0615 157.9 21.2 5.02 126
2024 11 03 08  03 40 57.212   +00 17 26.34  .07444 1.0613 157.9 21.2 5.23 126
2024 11 03 09  03 41 16.939   +00 13 33.69  .07429 1.0611 157.8 21.2 5.44 126
2024 11 03 10  03 41 36.741   +00 09 40.19  .07414 1.0609 157.7 21.2 5.66 126
2024 11 03 11  03 41 56.617   +00 05 45.80  .07399 1.0607 157.6 21.2 5.88 126
2024 11 03 12  03 42 16.569   +00 01 50.55  .07384 1.0605 157.5 21.2 6.11 126
2024 11 03 13  03 42 36.596   -00 02 05.58  .07369 1.0603 157.4 21.2 6.34 126
2024 11 03 14  03 42 56.699   -00 06 02.58  .07354 1.0602 157.4 21.2 6.58 126
2024 11 03 15  03 43 16.878   -00 10 00.47  .07339 1.0600 157.3 21.2 6.82 127
2024 11 03 16  03 43 37.134   -00 13 59.24  .07325 1.0598 157.2 21.2 7.07 127
2024 11 03 17  03 43 57.466   -00 17 58.90  .07310 1.0596 157.1 21.2 7.32 127
2024 11 03 18  03 44 17.875   -00 21 59.45  .07295 1.0594 157.0 21.2 7.58 127
2024 11 03 19  03 44 38.363   -00 26 00.88  .07281 1.0592 156.9 21.2 7.84 127
2024 11 03 20  03 44 58.928   -00 30 03.21  .07266 1.0590 156.8 21.2 8.11 127
2024 11 03 21  03 45 19.571   -00 34 06.44  .07252 1.0588 156.8 21.2 8.39 127
2024 11 03 22  03 45 40.293   -00 38 10.56  .07237 1.0587 156.7 21.2 8.67 127
2024 11 03 23  03 46 01.093   -00 42 15.59  .07222 1.0585 156.6 21.2 8.95 127
2024 11 04 00  03 46 21.973   -00 46 21.51  .07208 1.0583 156.5 21.2 9.24 127